Radiation Dose at Monitoring Post of Fukushima Daini Nuclear Power Station
Date,Time,MP-1(microSv/h),MP-2(microSv/h),MP-3(microSv/h),MP-4(microSv/h),MP-5(microSv/h),MP-6(microSv/h),MP-7(microSv/h),Wind Direction,Wind Velocity(m/s),Rain
2016/10/30,00:00,0.406,0.241,0.419,0.380,0.363,0.195,0.167,north,6.6,No
2016/10/30,00:10,0.407,0.240,0.416,0.382,0.363,0.197,0.168,north,6.7,No
2016/10/30,00:20,0.405,0.240,0.419,0.381,0.363,0.195,0.169,north,5.4,No
2016/10/30,00:30,0.405,0.240,0.419,0.379,0.363,0.196,0.167,north,5.9,No
2016/10/30,00:40,0.406,0.240,0.416,0.382,0.364,0.195,0.168,north,4.2,No
2016/10/30,00:50,0.406,0.240,0.419,0.381,0.364,0.195,0.167,north,5.6,No
2016/10/30,01:00,0.406,0.241,0.418,0.381,0.365,0.195,0.168,north,6.5,No
2016/10/30,01:10,0.407,0.240,0.416,0.382,0.365,0.196,0.167,north,6.9,No
2016/10/30,01:20,0.407,0.240,0.419,0.381,0.362,0.195,0.167,north,6.4,No
2016/10/30,01:30,0.405,0.240,0.417,0.381,0.364,0.196,0.167,north,6.2,No
2016/10/30,01:40,0.408,0.240,0.416,0.383,0.363,0.196,0.168,north,5.6,No
2016/10/30,01:50,0.407,0.240,0.420,0.380,0.362,0.195,0.167,north,5.5,No
2016/10/30,02:00,0.406,0.241,0.418,0.381,0.364,0.195,0.168,north,3.6,No
2016/10/30,02:10,0.405,0.239,0.416,0.382,0.364,0.195,0.168,north,4.2,No
2016/10/30,02:20,0.406,0.240,0.418,0.380,0.363,0.195,0.168,north,4.2,No
2016/10/30,02:30,0.405,0.240,0.416,0.382,0.363,0.196,0.167,north,4.6,No
2016/10/30,02:40,0.407,0.240,0.418,0.382,0.365,0.197,0.167,north,6.5,No
2016/10/30,02:50,0.407,0.240,0.419,0.380,0.362,0.196,0.167,north,5.8,No
2016/10/30,03:00,0.406,0.240,0.417,0.383,0.362,0.196,0.167,north,6.2,No
2016/10/30,03:10,0.406,0.241,0.416,0.382,0.365,0.196,0.167,north,6.0,No
2016/10/30,03:20,0.406,0.240,0.419,0.380,0.362,0.196,0.168,north,6.7,No
2016/10/30,03:30,0.406,0.241,0.417,0.382,0.363,0.196,0.168,north,7.2,No
2016/10/30,03:40,0.408,0.240,0.418,0.380,0.364,0.194,0.167,north,6.4,No
2016/10/30,03:50,0.408,0.240,0.420,0.381,0.365,0.196,0.167,north,6.4,No
2016/10/30,04:00,0.407,0.240,0.416,0.380,0.362,0.195,0.168,north,5.7,No
2016/10/30,04:10,0.405,0.239,0.419,0.380,0.364,0.194,0.167,north,4.8,No
2016/10/30,04:20,0.407,0.241,0.417,0.379,0.364,0.196,0.168,north,4.4,No
2016/10/30,04:30,0.405,0.241,0.418,0.381,0.362,0.196,0.168,north,4.2,No
2016/10/30,04:40,0.407,0.241,0.420,0.381,0.364,0.194,0.167,north-northwest,3.5,No
2016/10/30,04:50,0.406,0.241,0.417,0.381,0.364,0.195,0.166,north-northwest,2.8,No
2016/10/30,05:00,0.405,0.241,0.418,0.382,0.361,0.194,0.166,north-northwest,2.7,No
2016/10/30,05:10,0.408,0.240,0.420,0.381,0.363,0.196,0.167,north-northwest,2.5,No
2016/10/30,05:20,0.404,0.240,0.417,0.382,0.363,0.195,0.167,north,3.1,No
2016/10/30,05:30,0.405,0.240,0.417,0.381,0.361,0.196,0.167,north,3.2,No
2016/10/30,05:40,0.407,0.240,0.419,0.380,0.362,0.194,0.168,north,2.5,No
2016/10/30,05:50,0.405,0.240,0.419,0.382,0.365,0.195,0.168,north,3.0,No
2016/10/30,06:00,0.405,0.241,0.418,0.383,0.365,0.195,0.169,north-northwest,3.0,No
2016/10/30,06:10,0.406,0.241,0.419,0.379,0.363,0.196,0.167,north-northwest,2.8,No
2016/10/30,06:20,0.406,0.240,0.416,0.381,0.366,0.195,0.167,north-northwest,2.6,No
2016/10/30,06:30,0.406,0.239,0.419,0.382,0.363,0.194,0.167,northwest,1.9,No
2016/10/30,06:40,0.407,0.240,0.418,0.380,0.361,0.196,0.167,north-northwest,0.8,No
2016/10/30,06:50,0.406,0.240,0.417,0.382,0.367,0.194,0.167,west,1.5,No
2016/10/30,07:00,0.406,0.241,0.417,0.382,0.363,0.196,0.167,west-northwest,1.4,No
2016/10/30,07:10,0.407,0.242,0.420,0.380,0.362,0.196,0.167,north-northwest,1.0,No
2016/10/30,07:20,0.407,0.240,0.417,0.380,0.364,0.196,0.166,north-northwest,0.7,No
2016/10/30,07:30,0.405,0.240,0.418,0.381,0.364,0.195,0.167,north,1.6,No
2016/10/30,07:40,0.405,0.241,0.419,0.378,0.363,0.196,0.167,north-northwest,1.5,No
2016/10/30,07:50,0.406,0.240,0.416,0.382,0.362,0.196,0.166,northwest,0.8,No
2016/10/30,08:00,0.406,0.239,0.416,0.379,0.363,0.195,0.167,west-northwest,1.0,No
2016/10/30,08:10,0.406,0.241,0.418,0.381,0.360,0.196,0.167,west,0.8,No
2016/10/30,08:20,0.407,0.240,0.415,0.380,0.363,0.196,0.167,northwest,0.5,No
2016/10/30,08:30,0.404,0.240,0.418,0.379,0.361,0.196,0.166,north,1.1,No
2016/10/30,08:40,0.407,0.241,0.417,0.382,0.360,0.195,0.168,north-northwest,0.6,No
2016/10/30,08:50,0.405,0.239,0.417,0.379,0.363,0.195,0.166,northwest,0.6,No
2016/10/30,09:00,0.404,0.240,0.417,0.379,0.361,0.194,0.168,-,CALM,No
2016/10/30,09:10,0.406,0.238,0.416,0.377,0.362,0.196,0.166,-,CALM,No
2016/10/30,09:20,0.403,0.241,0.418,0.380,0.361,0.195,0.168,east,1.6,No
2016/10/30,09:30,0.405,0.236,0.415,0.378,0.364,0.196,0.166,east-southeast,1.5,No
2016/10/30,09:40,0.403,0.239,0.418,0.379,0.360,0.196,0.167,southeast,1.5,No
2016/10/30,09:50,0.403,0.239,0.417,0.379,0.364,0.196,0.168,east-southeast,2.2,No
2016/10/30,10:00,0.403,0.237,0.417,0.379,0.360,0.195,0.167,southeast,2.4,No
2016/10/30,10:10,0.403,0.241,0.415,0.381,0.362,0.196,0.167,east-southeast,1.4,No
2016/10/30,10:20,0.403,0.238,0.417,0.380,0.362,0.196,0.167,southeast,1.9,No
2016/10/30,10:30,0.406,0.241,0.419,0.381,0.365,0.196,0.168,east,1.4,No
2016/10/30,10:40,0.407,0.239,0.415,0.381,0.361,0.195,0.167,east,1.7,No
2016/10/30,10:50,0.406,0.241,0.419,0.382,0.363,0.197,0.167,southeast,1.6,No
2016/10/30,11:00,0.406,0.239,0.415,0.379,0.361,0.196,0.169,east,0.5,No
2016/10/30,11:10,0.406,0.241,0.417,0.381,0.365,0.196,0.168,east-southeast,1.2,No
2016/10/30,11:20,0.404,0.239,0.415,0.380,0.364,0.195,0.168,southeast,1.1,No
2016/10/30,11:30,0.405,0.242,0.416,0.382,0.363,0.197,0.168,-,CALM,No
2016/10/30,11:40,0.406,0.239,0.417,0.379,0.360,0.195,0.168,south-southeast,1.6,No
2016/10/30,11:50,0.406,0.240,0.419,0.382,0.365,0.195,0.168,south-southeast,2.1,No
2016/10/30,12:00,0.406,0.240,0.416,0.380,0.362,0.195,0.167,south-southwest,2.2,No
2016/10/30,12:10,0.405,0.241,0.420,0.385,0.364,0.197,0.168,south-southeast,1.4,No
2016/10/30,12:20,0.405,0.239,0.416,0.380,0.361,0.196,0.168,south,1.5,No
2016/10/30,12:30,0.406,0.242,0.417,0.381,0.364,0.197,0.167,south-southeast,2.1,No
2016/10/30,12:40,0.406,0.240,0.416,0.378,0.363,0.196,0.167,south-southeast,2.4,No
2016/10/30,12:50,0.408,0.241,0.419,0.383,0.361,0.196,0.167,south-southeast,1.4,No
2016/10/30,13:00,0.404,0.239,0.415,0.380,0.364,0.196,0.169,south,1.6,No
2016/10/30,13:10,0.407,0.241,0.418,0.380,0.361,0.197,0.167,southeast,1.3,No
2016/10/30,13:20,0.406,0.240,0.415,0.380,0.365,0.196,0.168,southeast,2.2,No
2016/10/30,13:30,0.408,0.241,0.418,0.379,0.361,0.196,0.168,south-southeast,2.2,No
2016/10/30,13:40,0.405,0.240,0.415,0.382,0.365,0.196,0.168,south-southeast,2.4,No
2016/10/30,13:50,0.407,0.240,0.418,0.380,0.362,0.196,0.168,south-southeast,1.7,No
2016/10/30,14:00,0.406,0.240,0.416,0.380,0.365,0.196,0.168,southeast,1.7,No
2016/10/30,14:10,0.407,0.240,0.419,0.380,0.362,0.196,0.168,south-southeast,2.9,No
2016/10/30,14:20,0.406,0.241,0.417,0.382,0.365,0.198,0.169,southeast,2.5,No
2016/10/30,14:30,0.409,0.239,0.419,0.381,0.364,0.196,0.168,south,1.7,No
2016/10/30,14:40,0.407,0.241,0.417,0.384,0.365,0.196,0.168,south-southeast,2.5,No
2016/10/30,14:50,0.406,0.240,0.418,0.382,0.363,0.196,0.168,south-southeast,2.1,No
2016/10/30,15:00,0.408,0.240,0.418,0.384,0.362,0.195,0.167,southeast,2.0,No
2016/10/30,15:10,0.406,0.241,0.418,0.382,0.365,0.197,0.169,south-southeast,1.8,No
2016/10/30,15:20,0.407,0.240,0.417,0.382,0.364,0.196,0.168,southeast,1.6,No
2016/10/30,15:30,0.405,0.241,0.417,0.381,0.365,0.197,0.169,south,1.5,No
2016/10/30,15:40,0.408,0.238,0.419,0.381,0.364,0.195,0.168,southeast,1.9,No
2016/10/30,15:50,0.407,0.240,0.416,0.382,0.365,0.196,0.167,southeast,0.5,No
2016/10/30,16:00,0.407,0.239,0.420,0.381,0.363,0.196,0.169,-,CALM,No
2016/10/30,16:10,0.409,0.241,0.417,0.384,0.365,0.197,0.168,east,0.5,No
2016/10/30,16:20,0.407,0.241,0.420,0.383,0.363,0.196,0.169,-,CALM,No
2016/10/30,16:30,0.408,0.240,0.420,0.383,0.364,0.196,0.168,-,CALM,No
2016/10/30,16:40,0.408,0.241,0.418,0.383,0.366,0.195,0.168,-,CALM,No
2016/10/30,16:50,0.407,0.241,0.421,0.381,0.365,0.196,0.169,-,CALM,No
2016/10/30,17:00,0.410,0.240,0.418,0.384,0.363,0.197,0.168,northeast,1.0,No
2016/10/30,17:10,0.406,0.240,0.419,0.384,0.366,0.197,0.169,north-northeast,0.8,No
2016/10/30,17:20,0.409,0.240,0.419,0.383,0.365,0.196,0.169,north-northeast,1.5,No
2016/10/30,17:30,0.407,0.241,0.418,0.385,0.365,0.197,0.168,northeast,1.4,No
2016/10/30,17:40,0.407,0.239,0.420,0.382,0.367,0.196,0.170,north-northeast,1.1,No
2016/10/30,17:50,0.406,0.241,0.419,0.384,0.366,0.196,0.168,north,1.4,No
2016/10/30,18:00,0.409,0.241,0.420,0.384,0.365,0.197,0.170,north-northeast,1.1,No
2016/10/30,18:10,0.406,0.241,0.421,0.384,0.365,0.197,0.170,north,1.1,No
2016/10/30,18:20,0.411,0.242,0.419,0.383,0.365,0.197,0.169,north-northwest,0.7,No
2016/10/30,18:30,0.407,0.240,0.419,0.383,0.366,0.196,0.170,northeast,1.0,No
2016/10/30,18:40,0.408,0.240,0.420,0.383,0.364,0.197,0.169,northeast,0.7,No
2016/10/30,18:50,0.408,0.240,0.418,0.384,0.363,0.197,0.169,north-northeast,0.7,No
2016/10/30,19:00,0.406,0.241,0.421,0.383,0.363,0.197,0.169,east-northeast,0.8,No
2016/10/30,19:10,0.406,0.242,0.419,0.382,0.364,0.196,0.170,north,0.5,No
2016/10/30,19:20,0.408,0.240,0.418,0.384,0.364,0.197,0.168,-,CALM,No
2016/10/30,19:30,0.408,0.240,0.421,0.381,0.364,0.197,0.168,-,CALM,No
2016/10/30,19:40,0.408,0.241,0.419,0.383,0.364,0.197,0.169,-,CALM,No
2016/10/30,19:50,0.410,0.242,0.419,0.384,0.365,0.196,0.169,-,CALM,No
2016/10/30,20:00,0.409,0.241,0.420,0.383,0.363,0.197,0.169,-,CALM,No
2016/10/30,20:10,0.406,0.240,0.421,0.383,0.365,0.197,0.169,northwest,0.6,No
2016/10/30,20:20,0.408,0.241,0.418,0.383,0.365,0.196,0.169,west-northwest,0.6,No
2016/10/30,20:30,0.408,0.240,0.420,0.381,0.364,0.196,0.169,-,CALM,No
2016/10/30,20:40,0.406,0.241,0.418,0.385,0.364,0.196,0.169,-,CALM,No
2016/10/30,20:50,0.408,0.240,0.418,0.382,0.363,0.197,0.169,north,0.7,No
2016/10/30,21:00,0.408,0.241,0.420,0.382,0.363,0.197,0.169,north,1.5,No
2016/10/30,21:10,0.407,0.239,0.419,0.384,0.366,0.197,0.169,north,3.8,No
2016/10/30,21:20,0.409,0.241,0.419,0.382,0.365,0.196,0.169,north,4.1,No
2016/10/30,21:30,0.408,0.241,0.420,0.383,0.365,0.197,0.169,north,4.7,No
2016/10/30,21:40,0.408,0.240,0.421,0.384,0.366,0.197,0.169,north,4.2,No
2016/10/30,21:50,0.410,0.241,0.421,0.382,0.365,0.196,0.169,north,4.8,No
2016/10/30,22:00,0.409,0.241,0.420,0.385,0.365,0.197,0.169,north-northwest,2.4,No
2016/10/30,22:10,0.408,0.242,0.419,0.383,0.366,0.198,0.169,north,5.4,No
2016/10/30,22:20,0.408,0.240,0.420,0.384,0.363,0.197,0.169,north-northwest,5.9,No
2016/10/30,22:30,0.406,0.241,0.419,0.384,0.366,0.197,0.169,north-northwest,5.6,No
2016/10/30,22:40,0.408,0.242,0.420,0.384,0.366,0.197,0.169,north-northwest,5.9,No
2016/10/30,22:50,0.409,0.241,0.418,0.386,0.365,0.197,0.170,north-northwest,5.2,No
2016/10/30,23:00,0.408,0.242,0.418,0.385,0.364,0.196,0.170,north-northwest,5.0,No
2016/10/30,23:10,0.407,0.241,0.421,0.384,0.365,0.197,0.170,northwest,3.4,No
2016/10/30,23:20,0.409,0.241,0.418,0.384,0.362,0.197,0.168,north,2.5,No
2016/10/30,23:30,0.408,0.241,0.419,0.382,0.367,0.198,0.169,north,2.5,No
2016/10/30,23:40,0.409,0.240,0.420,0.383,0.365,0.198,0.168,west-northwest,0.7,No
2016/10/30,23:50,0.406,0.240,0.419,0.384,0.364,0.197,0.168,north-northwest,2.4,No
